Simultaneous Nadir Overpasses (SNOs) Predictions

Prediction of SNOs between NOAA-21 and PACE Satellite Orbit:

Table of predicted SNOs for the next 14.0 days since TLE Epoch: 5/25/2024
Index Date (NOAA-21) Time (NOAA-21) Lat,Lon (NOAA-21) SZA (NOAA-21 ) Date (PACE) Time (PACE) Lat,Lon (PACE) SZA (PACE ) Distance(km) Time Diff (sec)
1 05/25/2024 04:53:27 79.65, 70.77 60.59 05/25/2024 04:53:09 79.64, 70.89 60.58 2.47 18
2 05/27/2024 08:29:15 -79.76,-164.17 119.57 05/27/2024 08:30:13 -79.76,-164.27 119.58 2.07 58
3 05/27/2024 09:19:55 79.58, 4.72 60.12 05/27/2024 09:19:18 79.58, 4.72 60.13 0.09 37
4 05/29/2024 12:55:44 -79.73, 129.47 119.95 05/29/2024 12:56:22 -79.74, 129.39 119.96 1.64 38
5 05/29/2024 13:46:23 79.52, -61.39 59.68 05/29/2024 13:45:26 79.52, -61.39 59.70 0.29 57
6 05/31/2024 17:22:14 -79.74, 62.77 120.24 05/31/2024 17:22:31 -79.74, 62.83 120.25 1.39 17
7 06/02/2024 21:48:42 -79.69, -3.42 120.59 06/02/2024 21:48:38 -79.69, -3.39 120.59 0.66 4
8 06/05/2024 01:24:32 79.85, 121.16 59.47 06/05/2024 01:25:40 79.85, 121.23 59.43 1.33 68
9 06/05/2024 02:15:10 -79.65, -69.66 120.90 06/05/2024 02:14:44 -79.64, -69.55 120.91 2.33 26
10 06/07/2024 05:50:59 79.79, 55.16 59.14 06/07/2024 05:51:45 79.79, 55.13 59.13 0.86 46



Historial Predications of SNOs between NOAA-21 and PACE
